Location: Newark
(11.2914°S, 14.4718°E)
Time: 10:17:50
(UTC+00:00)

Tiros 1 - All Passes

Search period start: 19 September 2019 00:00
Search period end: 29 September 2019 00:00
Orbit: 630 x 664 km, 48.4° (Epoch: 18 September)

Date Brightness Start Highest point End Pass type
(mag) Time Alt. Az. Time Alt. Az. Time Alt. Az.
19 Sep - 08:29:35 10° SW 08:34:25 79° SE 08:39:12 10° NE daylight
19 Sep - 20:48:46 10° N 20:52:19 22° NE 20:55:53 10° ESE night (unlit)
19 Sep - 22:30:15 10° WNW 22:34:19 30° SW 22:38:26 10° SSE night (unlit)
20 Sep - 07:14:27 10° S 07:18:16 23° SE 07:22:04 10° E daylight
20 Sep - 08:56:07 10° WSW 09:00:23 32° NW 09:04:37 10° N daylight
20 Sep - 21:13:39 10° NW 21:18:15 74° NE 21:22:54 10° SE night (unlit)
20 Sep - 22:59:51 10° SW 23:00:37 10° SW 23:01:23 10° SSW night (unlit)
21 Sep - 07:39:35 10° SW 07:44:24 70° SE 07:49:10 10° NE daylight
21 Sep - 19:59:02 10° N 20:02:20 19° NE 20:05:38 10° E night (unlit)
21 Sep - 21:40:07 10° WNW 21:44:18 33° SW 21:48:32 10° SSE night (unlit)
22 Sep - 06:24:37 10° S 06:28:14 21° SE 06:31:49 10° E daylight
22 Sep - 08:05:58 10° WSW 08:10:22 36° NW 08:14:45 10° NNE daylight
22 Sep - 20:23:42 10° NNW 20:28:15 64° NE 20:32:52 10° SE night (unlit)
22 Sep - 22:08:57 10° WSW 22:10:35 12° SW 22:12:13 10° SSW night (unlit)
23 Sep - 06:49:36 10° SSW 06:54:23 61° SE 06:59:07 10° NE daylight
23 Sep - 08:34:52 10° WNW 08:36:17 11° NW 08:37:43 10° NW daylight
23 Sep - 19:09:21 10° NNE 19:12:20 17° NE 19:15:21 10° E night (unlit)
23 Sep - 20:50:01 10° WNW 20:54:17 37° SW 20:58:37 10° SSE night (unlit)
24 Sep - 05:34:50 10° S 05:38:11 19° SE 05:41:32 10° E daylight
24 Sep - 07:15:51 10° WSW 07:20:22 40° NW 07:24:51 10° NNE daylight
24 Sep - 19:33:45 10° NNW 19:38:16 56° NE 19:42:49 10° SE night (unlit)
24 Sep - 21:18:23 10° WSW 21:20:32 13° SW 21:22:41 10° SSW night (unlit)
25 Sep - 05:59:38 10° SSW 06:04:21 54° SE 06:09:03 10° NE daylight
25 Sep - 07:44:09 10° W 07:46:17 13° NW 07:48:25 10° NNW daylight
25 Sep - 18:19:43 10° NNE 18:22:21 15° NE 18:25:00 10° E visible
25 Sep - 19:59:54 10° WNW 20:04:16 42° SW 20:08:42 10° SSE night (unlit)
26 Sep - 04:45:04 10° S 04:48:08 17° SE 04:51:12 10° E daylight
26 Sep - 06:25:45 10° SW 06:30:21 46° NW 06:34:56 10° NNE daylight
26 Sep - 18:43:50 10° NNW 18:48:16 49° NE 18:52:45 10° SE visible
26 Sep - 20:27:57 10° WSW 20:30:30 14° SW 20:33:03 10° S night (unlit)
27 Sep - 05:09:41 10° SSW 05:14:20 48° SE 05:18:58 10° ENE daylight
27 Sep - 06:53:39 10° W 06:56:17 15° NW 06:58:53 10° NNW daylight
27 Sep - 17:30:10 10° NNE 17:32:22 13° NE 17:34:33 10° E visible
27 Sep - 19:09:49 10° WNW 19:14:16 48° SW 19:18:45 10° SSE visible
28 Sep - 03:55:21 10° S 03:58:05 15° SE 04:00:49 10° E visible
28 Sep - 05:35:40 10° SW 05:40:20 52° NW 05:45:00 10° NNE daylight
28 Sep - 17:53:55 10° NNW 17:58:17 43° NE 18:02:40 10° ESE visible
28 Sep - 19:37:35 10° W 19:40:28 16° SW 19:43:21 10° S visible
